This demonstration page uses our WeatherBlox Daily Observations layout. Learn more.

Left ArrowRight Arrow

Hourly Observations for December 16, 2019

Temp ( °F °C ) Dew Point ( °F °C ) Humidity (%) Winds ( mph kmh ) Pressure ( in mb ) Visibility ( mi km ) Precip ( " mm )
12:51 am 00:51 Clear 43 6.1 30 -1.1 60 60 NW 9 15 29.96 1015 10 16 N/A
1:51 am 01:51 Clear 40 4.4 30 -1.1 68 68 NNW 7 11 29.97 1015 10 16 N/A
2:51 am 02:51 Clear 39 3.9 29 -1.7 67 67 NNW 8 13 30.01 1016 10 16 N/A
3:51 am 03:51 Clear 38 3.3 29 -1.7 70 70 NNW 6 9 30.03 1017 10 16 N/A
4:51 am 04:51 Clear 36 2.2 29 -1.7 76 76 NW 5 7 30.04 1017 10 16 N/A
5:51 am 05:51 Clear 34 1.1 29 -1.7 82 82 NW 5 7 30.07 1018 10 16 N/A
6:51 am 06:51 Clear 32 undefined 29 -1.7 88 88 N N/A 30.11 1020 10 16 N/A
7:51 am 07:51 Sunny 35 1.7 30 -1.1 82 82 N N/A 30.13 1020 10 16 N/A
8:51 am 08:51 Sunny 38 3.3 31 -0.6 76 76 N N/A 30.15 1021 10 16 N/A
9:51 am 09:51 Sunny 41 5 32 undefined 70 70 N N/A 30.17 1022 10 16 N/A
10:51 am 10:51 Sunny 47 8.3 28 -2.2 48 48 NW 10 17 30.16 1022 10 16 N/A
11:51 am 11:51 Sunny 48 8.9 25 -3.9 41 41 WNW 16 26 30.14 1021 10 16 N/A
12:51 pm 12:51 Sunny 51 10.6 24 -4.4 35 35 WNW 15 24 30.11 1020 10 16 N/A
1:51 pm 13:51 Sunny 53 11.7 18 -7.8 25 25 WNW 14 22 30.09 1019 10 16 N/A
2:51 pm 14:51 Sunny 54 12.2 19 -7.2 25 25 WNW 17 28 30.08 1019 10 16 N/A
3:51 pm 15:51 Sunny 53 11.7 16 -8.9 23 23 WNW 16 26 30.09 1019 10 16 N/A
4:51 pm 16:51 Sunny 51 10.6 13 -10.6 22 22 WNW 16 26 30.11 1020 10 16 N/A
5:51 pm 17:51 Clear 47 8.3 12 -11.1 24 24 WNW 14 22 30.15 1021 10 16 N/A
6:51 pm 18:51 Clear 43 6.1 14 -10 31 31 WNW 10 17 30.19 1023 10 16 N/A
7:51 pm 19:51 Clear 40 4.4 16 -8.9 38 38 W 13 20 30.22 1023 10 16 N/A
8:51 pm 20:51 Clear 37 2.8 18 -7.8 46 46 N 8 13 30.24 1024 10 16 N/A
9:51 pm 21:51 Clear 35 1.7 18 -7.8 50 50 NNW 7 11 30.25 1024 10 16 N/A
10:51 pm 22:51 Clear 33 0.6 19 -7.2 56 56 NNE 5 7 30.28 1025 10 16 N/A
11:51 pm 23:51 Clear 32 undefined 19 -7.2 59 59 N N/A 30.29 1026 10 16 N/A

Powered by AerisWeather